Edwards AFB North Base, CA

9:11 PM PST on December 14, 2019 (GMT -0800)
Edwards AFB North Base

Weather History for K9L2 - May, 2019

Change the Weather History Date:

Wednesday, May 15, 2019

  Actual Average (WUND) Record (WUND)
Temperature  
Mean Temperature 67 °F -  
Max Temperature 78 °F - - (-1)
Min Temperature 56 °F - - (-1)
Cooling Degree Days 2    
Growing Degree Days 17 (Base 50)    
Moisture  
Dew Point 40 °F    
Average Humidity 41    
Maximum Humidity 63    
Minimum Humidity 19    
Precipitation  
Precipitation 0.00 in - - ()
Sea Level Pressure  
Sea Level Pressure 29.82 in    
Wind  
Wind Speed 13 mph ()    
Max Wind Speed 25 mph    
Max Gust Speed 33 mph    
Visibility 9.5 miles    
Events      
Averages and records for this station are not official NWS values.
T = Trace of Precipitation, MM = Missing Value Source: Averaged Metar Reports

Daily Weather History Graph

Daily Weather History Graph

Search for Another Location

Airport or City:

Astronomy

May. 15, 2019 Rise Set
Actual Time 5:47 AM PDT 7:48 PM PDT
Civil Twilight 5:19 AM PDT 8:16 PM PDT
Nautical Twilight 4:45 AM PDT 8:50 PM PDT
Astronomical Twilight 4:09 AM PDT 9:27 PM PDT
Moon 4:34 PM PDT 4:04 AM PDT
Length of Visible Light 14h 56m
Length of Day
14h 00m
Waxing Gibbous, 88% of the Moon is Illuminated
May 15
Waxing Gibbous
May 18
Full
May 26
Last Quarter
Jun 3
New
Jun 9
First Quarter

Hourly Weather History & Observations

Time (PDT) Temp. Dew Point Humidity Pressure Visibility Wind Dir Wind Speed Gust Speed Precip Events Conditions
12:58 AM 64.9 °F 39.2 °F 39% 29.86 in 9.0 mi West 8.1 mph - N/A   Clear
1:58 AM 66.0 °F 36.1 °F 33% 29.83 in 9.0 mi SW 9.2 mph - N/A   Partly Cloudy
2:43 AM 66.2 °F 39.2 °F 37% 29.82 in 10.0 mi SW 15.0 mph - N/A   Scattered Clouds
2:58 AM 65.5 °F 40.5 °F 40% 29.83 in 10.0 mi SW 12.7 mph - N/A   Scattered Clouds
3:58 AM 65.5 °F 38.5 °F 37% 29.83 in 10.0 mi SW 13.8 mph - N/A   Partly Cloudy
4:58 AM 64.4 °F 43.0 °F 46% 29.83 in 10.0 mi SW 11.5 mph - N/A   Clear
5:58 AM 63.7 °F 44.1 °F 49% 29.83 in 9.0 mi SW 10.4 mph - N/A   Clear
6:58 AM 63.9 °F 44.8 °F 50% 29.84 in 9.0 mi SSW 9.2 mph - N/A   Clear
7:58 AM 64.9 °F 45.1 °F 49% 29.86 in 8.0 mi SW 4.6 mph - N/A   Partly Cloudy
8:13 AM 66.2 °F 44.6 °F 46% 29.85 in 10.0 mi SSW 6.9 mph - N/A   Mostly Cloudy
8:58 AM 68.0 °F 42.4 °F 39% 29.86 in 10.0 mi SSW 12.7 mph - N/A   Mostly Cloudy
9:13 AM 69.8 °F 41.0 °F 35% 29.85 in 10.0 mi SSW 15.0 mph - N/A   Scattered Clouds
9:58 AM 71.6 °F 39.7 °F 31% 29.84 in 10.0 mi SSW 15.0 mph 21.9 mph N/A   Scattered Clouds
10:58 AM 74.7 °F 33.1 °F 22% 29.85 in 10.0 mi SW 18.4 mph 25.3 mph N/A   Partly Cloudy
12:58 PM 77.2 °F 33.1 °F 20% 29.82 in 10.0 mi SW 21.9 mph 32.2 mph N/A   Clear
1:58 PM 77.5 °F 33.4 °F 20% 29.80 in 9.0 mi SSW 21.9 mph 32.2 mph N/A   Partly Cloudy
2:58 PM 76.6 °F 31.3 °F 19% 29.79 in 9.0 mi SW 25.3 mph 33.4 mph N/A   Partly Cloudy
3:58 PM 74.1 °F 30.9 °F 20% 29.79 in 9.0 mi SW 23.0 mph 33.4 mph N/A   Scattered Clouds
4:58 PM 71.2 °F 37.4 °F 29% 29.79 in 10.0 mi SW 20.7 mph 27.6 mph N/A   Clear
5:58 PM 67.8 °F 39.9 °F 36% 29.78 in 9.0 mi SW 21.9 mph 26.5 mph N/A   Partly Cloudy
6:58 PM 65.5 °F 39.9 °F 39% 29.78 in 9.0 mi SW 21.9 mph 27.6 mph N/A   Clear
7:58 PM 62.2 °F 41.5 °F 47% 29.82 in 9.0 mi SW 20.7 mph 26.5 mph N/A   Clear
8:58 PM 59.5 °F 45.7 °F 60% 29.81 in 9.0 mi SW 19.6 mph 25.3 mph N/A   Partly Cloudy
9:58 PM 57.9 °F 45.1 °F 62% 29.82 in 10.0 mi SW 19.6 mph - N/A   Scattered Clouds
10:13 PM 59.0 °F 44.6 °F 59% 29.81 in 10.0 mi SW 21.9 mph 27.6 mph N/A   Mostly Cloudy
10:58 PM 57.0 °F 44.1 °F 62% 29.81 in 10.0 mi SW 16.1 mph - N/A   Mostly Cloudy
11:13 PM 57.2 °F 44.6 °F 63% 29.82 in 10.0 mi SW 13.8 mph 21.9 mph N/A   Scattered Clouds
11:58 PM 56.3 °F 43.7 °F 63% 29.81 in 10.0 mi SW 19.6 mph 27.6 mph N/A   Scattered Clouds